TimePDT,TemperatureF,Dew PointF,Humidity,Sea Level PressureIn,VisibilityMPH,Wind Direction,Wind SpeedMPH,Gust SpeedMPH,PrecipitationIn,Events,Conditions,WindDirDegrees,DateUTC
12:15 AM,51.8,30.2,44,30.27,10.0,East,3.5,-,N/A,,Clear,100,2013-08-01 07:15:00
12:35 AM,51.8,32.0,47,30.26,10.0,SSE,3.5,-,N/A,,Clear,160,2013-08-01 07:35:00
12:55 AM,50.0,32.0,50,30.26,10.0,SSE,4.6,-,N/A,,Clear,160,2013-08-01 07:55:00
1:15 AM,50.0,32.0,50,30.25,10.0,South,3.5,-,N/A,,Clear,190,2013-08-01 08:15:00
1:35 AM,46.4,32.0,57,30.25,10.0,Calm,Calm,-,N/A,,Clear,0,2013-08-01 08:35:00
1:55 AM,44.6,30.2,57,30.25,7.0,Calm,Calm,-,N/A,,Clear,0,2013-08-01 08:55:00
2:15 AM,46.4,30.2,53,30.24,7.0,Calm,Calm,-,N/A,,Clear,0,2013-08-01 09:15:00
2:35 AM,42.8,30.2,61,30.24,10.0,Calm,Calm,-,N/A,,Clear,0,2013-08-01 09:35:00
2:55 AM,44.6,32.0,61,30.24,10.0,SSW,5.8,-,N/A,,Clear,200,2013-08-01 09:55:00
3:15 AM,44.6,30.2,57,30.23,10.0,Calm,Calm,-,N/A,,Clear,0,2013-08-01 10:15:00
3:35 AM,41.0,28.4,61,30.23,10.0,Calm,Calm,-,N/A,,Clear,0,2013-08-01 10:35:00
3:55 AM,42.8,30.2,61,30.23,7.0,Calm,Calm,-,N/A,,Clear,0,2013-08-01 10:55:00
4:15 AM,39.2,28.4,65,30.23,7.0,Calm,Calm,-,N/A,,Scattered Clouds,0,2013-08-01 11:15:00
4:35 AM,41.0,30.2,65,30.23,7.0,Calm,Calm,-,N/A,,Scattered Clouds,0,2013-08-01 11:35:00
4:55 AM,39.2,30.2,70,30.23,10.0,Calm,Calm,-,N/A,,Overcast,0,2013-08-01 11:55:00
5:15 AM,41.0,30.2,65,30.23,7.0,Calm,Calm,-,N/A,,Overcast,0,2013-08-01 12:15:00
5:35 AM,39.2,30.2,70,30.23,7.0,NW,3.5,-,N/A,,Overcast,310,2013-08-01 12:35:00
5:55 AM,37.4,28.4,70,30.23,7.0,Calm,Calm,-,N/A,,Mostly Cloudy,0,2013-08-01 12:55:00
6:15 AM,41.0,28.4,61,30.24,7.0,South,4.6,-,N/A,,Scattered Clouds,190,2013-08-01 13:15:00
6:35 AM,42.8,30.2,61,30.23,5.0,Calm,Calm,-,N/A,,Haze,0,2013-08-01 13:35:00
6:55 AM,46.4,30.2,53,30.23,5.0,Calm,Calm,-,N/A,,Haze,0,2013-08-01 13:55:00
7:15 AM,50.0,32.0,50,30.24,5.0,South,9.2,-,N/A,,Haze,180,2013-08-01 14:15:00
7:35 AM,53.6,32.0,44,30.24,5.0,SE,5.8,-,N/A,,Haze,140,2013-08-01 14:35:00
7:55 AM,57.2,32.0,38,30.24,4.0,ESE,3.5,-,N/A,,Haze,120,2013-08-01 14:55:00
8:15 AM,59.0,32.0,36,30.24,4.0,Calm,Calm,-,N/A,,Haze,0,2013-08-01 15:15:00
8:35 AM,60.8,30.2,31,30.24,4.0,SSE,6.9,-,N/A,,Haze,150,2013-08-01 15:35:00
8:55 AM,64.4,30.2,28,30.24,4.0,SSE,6.9,-,N/A,,Haze,150,2013-08-01 15:55:00
9:15 AM,64.4,30.2,28,30.23,4.0,East,9.2,-,N/A,,Haze,100,2013-08-01 16:15:00
9:35 AM,66.2,28.4,24,30.23,4.0,East,4.6,-,N/A,,Haze,80,2013-08-01 16:35:00
9:55 AM,69.8,26.6,20,30.23,5.0,ESE,3.5,-,N/A,,Haze,110,2013-08-01 16:55:00
10:15 AM,71.6,23.0,16,30.23,7.0,SSE,6.9,-,N/A,,Clear,150,2013-08-01 17:15:00
10:35 AM,73.4,24.8,16,30.23,7.0,SE,3.5,-,N/A,,Clear,130,2013-08-01 17:35:00
10:55 AM,75.2,19.4,12,30.21,10.0,SE,11.5,25.3,N/A,,Clear,140,2013-08-01 17:55:00
11:15 AM,75.2,15.8,11,30.22,10.0,West,5.8,-,N/A,,Clear,270,2013-08-01 18:15:00
11:35 AM,75.2,14.0,10,30.22,10.0,WSW,9.2,23.0,N/A,,Clear,240,2013-08-01 18:35:00
11:55 AM,77.0,12.2,9,30.22,10.0,West,16.1,27.6,N/A,,Clear,270,2013-08-01 18:55:00
12:15 PM,77.0,14.0,9,30.21,10.0,WSW,9.2,19.6,N/A,,Clear,250,2013-08-01 19:15:00
12:35 PM,77.0,17.6,11,30.21,10.0,WSW,12.7,26.5,N/A,,Clear,250,2013-08-01 19:35:00
12:55 PM,77.0,17.6,11,30.21,7.0,SW,19.6,32.2,N/A,,Clear,220,2013-08-01 19:55:00
1:15 PM,77.0,19.4,12,30.21,7.0,SSW,21.9,33.4,N/A,,Scattered Clouds,210,2013-08-01 20:15:00
1:35 PM,77.0,21.2,12,30.21,7.0,SW,17.3,27.6,N/A,,Mostly Cloudy,220,2013-08-01 20:35:00
1:55 PM,77.0,19.4,12,30.20,7.0,SSW,12.7,27.6,N/A,,Scattered Clouds,210,2013-08-01 20:55:00
2:15 PM,78.8,17.6,10,30.20,7.0,SW,11.5,28.8,N/A,,Scattered Clouds,220,2013-08-01 21:15:00
2:35 PM,78.8,15.8,9,30.20,10.0,SW,15.0,26.5,N/A,,Clear,220,2013-08-01 21:35:00
2:55 PM,77.0,19.4,12,30.20,7.0,WSW,15.0,29.9,N/A,,Scattered Clouds,240,2013-08-01 21:55:00
3:15 PM,78.8,17.6,10,30.20,10.0,West,11.5,25.3,N/A,,Scattered Clouds,270,2013-08-01 22:15:00
3:35 PM,78.8,15.8,9,30.19,10.0,WSW,15.0,27.6,N/A,,Scattered Clouds,250,2013-08-01 22:35:00
3:55 PM,77.0,19.4,12,30.18,7.0,West,9.2,24.2,N/A,,Scattered Clouds,260,2013-08-01 22:55:00
4:15 PM,75.2,21.2,13,30.18,7.0,WNW,15.0,29.9,N/A,,Mostly Cloudy,290,2013-08-01 23:15:00
4:35 PM,75.2,19.4,12,30.18,7.0,West,16.1,27.6,N/A,,Overcast,270,2013-08-01 23:35:00
4:55 PM,75.2,21.2,13,30.18,5.0,West,21.9,28.8,N/A,,Haze,280,2013-08-01 23:55:00
5:15 PM,73.4,19.4,13,30.18,4.0,WNW,19.6,29.9,N/A,,Haze,290,2013-08-02 00:15:00
5:35 PM,71.6,19.4,14,30.19,5.0,WNW,25.3,29.9,N/A,,Haze,290,2013-08-02 00:35:00
5:55 PM,71.6,17.6,13,30.18,5.0,WNW,18.4,29.9,N/A,,Haze,290,2013-08-02 00:55:00
6:15 PM,71.6,19.4,14,30.19,5.0,WNW,18.4,28.8,N/A,,Haze,300,2013-08-02 01:15:00
6:35 PM,69.8,19.4,15,30.19,7.0,WNW,20.7,29.9,N/A,,Overcast,290,2013-08-02 01:35:00
6:55 PM,69.8,19.4,15,30.19,10.0,WNW,19.6,29.9,N/A,,Overcast,300,2013-08-02 01:55:00
7:15 PM,68.0,19.4,16,30.19,10.0,WNW,21.9,26.5,N/A,,Overcast,290,2013-08-02 02:15:00
7:35 PM,66.2,21.2,18,30.18,10.0,WNW,19.6,24.2,N/A,,Overcast,290,2013-08-02 02:35:00
7:55 PM,62.6,23.0,22,30.19,10.0,WNW,17.3,26.5,N/A,,Overcast,300,2013-08-02 02:55:00
8:15 PM,62.6,23.0,22,30.19,10.0,WNW,15.0,25.3,N/A,,Overcast,300,2013-08-02 03:15:00
8:35 PM,60.8,21.2,22,30.19,10.0,NW,9.2,-,N/A,,Overcast,310,2013-08-02 03:35:00
8:55 PM,60.8,23.0,23,30.19,10.0,WNW,4.6,-,N/A,,Overcast,290,2013-08-02 03:55:00
9:15 PM,57.2,23.0,27,30.19,10.0,Calm,Calm,-,N/A,,Overcast,0,2013-08-02 04:15:00
9:35 PM,55.4,23.0,29,30.20,10.0,SW,3.5,-,N/A,,Overcast,220,2013-08-02 04:35:00
9:55 PM,53.6,23.0,30,30.20,10.0,Calm,Calm,-,N/A,,Overcast,0,2013-08-02 04:55:00
10:15 PM,53.6,23.0,30,30.20,10.0,Calm,Calm,-,N/A,,Overcast,0,2013-08-02 05:15:00
10:35 PM,50.0,23.0,35,30.20,10.0,Calm,Calm,-,N/A,,Overcast,0,2013-08-02 05:35:00
10:55 PM,50.0,21.2,32,30.20,10.0,Calm,Calm,-,N/A,,Overcast,0,2013-08-02 05:55:00
11:15 PM,50.0,23.0,35,30.20,10.0,Calm,Calm,-,N/A,,Overcast,0,2013-08-02 06:15:00
11:35 PM,48.2,24.8,40,30.20,10.0,SSW,5.8,-,N/A,,Overcast,210,2013-08-02 06:35:00
11:55 PM,48.2,24.8,40,30.21,10.0,West,3.5,-,N/A,,Overcast,270,2013-08-02 06:55:00